Time,TemperatureF,DewpointF,PressureIn,WindDirection,WindDirectionDegrees,WindSpeedMPH,WindSpeedGustMPH,Humidity,HourlyPrecipIn,Conditions,Clouds,dailyrainin,SolarRadiationWatts/m^2,SoftwareType,DateUTC
2013-10-25 00:01:00,43.5,32.5,30.41,NNE,22,0.0,0.0,65,0.00,,,0.00,0.00,VWS V14.01,2013-10-25 05:01:00,
2013-10-25 00:06:00,43.3,32.3,30.41,NNE,22,0.0,0.0,65,0.00,,,0.00,0.00,VWS V14.01,2013-10-25 05:06:00,
2013-10-25 00:11:00,43.3,32.3,30.41,NNE,22,0.0,0.0,65,0.00,,,0.00,0.00,VWS V14.01,2013-10-25 05:11:00,
2013-10-25 00:16:00,43.3,32.3,30.41,NNE,22,0.0,0.0,65,0.00,,,0.00,0.00,VWS V14.01,2013-10-25 05:16:00,
2013-10-25 00:21:00,43.3,32.3,30.41,NNE,22,0.0,0.0,65,0.00,,,0.00,0.00,VWS V14.01,2013-10-25 05:21:00,
2013-10-25 00:26:00,43.2,32.2,30.41,NNE,22,0.0,0.0,65,0.00,,,0.00,0.00,VWS V14.01,2013-10-25 05:26:00,
2013-10-25 00:31:00,43.2,32.6,30.42,NNE,22,0.0,0.0,66,0.00,,,0.00,0.00,VWS V14.01,2013-10-25 05:31:00,
2013-10-25 00:36:00,42.9,32.3,30.41,NNE,22,0.0,0.0,66,0.00,,,0.00,0.00,VWS V14.01,2013-10-25 05:36:00,
2013-10-25 00:41:00,42.8,32.2,30.42,NNE,22,0.0,0.0,66,0.00,,,0.00,0.00,VWS V14.01,2013-10-25 05:41:00,
2013-10-25 00:46:00,42.8,32.6,30.42,NNE,22,0.0,0.0,67,0.00,,,0.00,0.00,VWS V14.01,2013-10-25 05:46:00,
2013-10-25 00:51:00,42.6,32.4,30.42,NNE,22,0.0,0.0,67,0.00,,,0.00,0.00,VWS V14.01,2013-10-25 05:51:00,
2013-10-25 00:56:00,42.3,32.9,30.42,NNE,22,0.0,0.0,69,0.00,,,0.00,0.00,VWS V14.01,2013-10-25 05:56:00,
2013-10-25 01:01:00,42.2,32.4,30.42,NNE,22,0.0,0.0,68,0.00,,,0.00,0.00,VWS V14.01,2013-10-25 06:01:00,
2013-10-25 01:06:00,42.1,32.3,30.42,NNE,22,0.0,0.0,68,0.00,,,0.00,0.00,VWS V14.01,2013-10-25 06:06:00,
2013-10-25 01:11:00,41.9,32.1,30.42,NNE,22,0.0,0.0,68,0.00,,,0.00,0.00,VWS V14.01,2013-10-25 06:11:00,
2013-10-25 01:16:00,41.9,31.8,30.42,NNE,22,0.0,0.0,67,0.00,,,0.00,0.00,VWS V14.01,2013-10-25 06:16:00,
2013-10-25 01:21:00,41.9,32.1,30.43,NNE,22,0.0,0.0,68,0.00,,,0.00,0.00,VWS V14.01,2013-10-25 06:21:00,
2013-10-25 01:26:00,41.8,31.7,30.42,NNE,22,0.0,0.0,67,0.00,,,0.00,0.00,VWS V14.01,2013-10-25 06:26:00,
2013-10-25 01:31:00,41.8,31.7,30.43,NNE,22,0.0,0.0,67,0.00,,,0.00,0.00,VWS V14.01,2013-10-25 06:31:00,
2013-10-25 01:36:00,41.8,31.3,30.43,NNE,22,0.0,0.0,66,0.00,,,0.00,0.00,VWS V14.01,2013-10-25 06:36:00,
2013-10-25 01:41:00,41.8,31.3,30.43,NNE,22,0.0,0.0,66,0.00,,,0.00,0.00,VWS V14.01,2013-10-25 06:41:00,
2013-10-25 01:46:00,41.8,31.3,30.44,NNE,22,0.0,0.0,66,0.00,,,0.00,0.00,VWS V14.01,2013-10-25 06:46:00,
2013-10-25 01:51:00,41.8,31.3,30.44,NNE,22,0.0,0.0,66,0.00,,,0.00,0.00,VWS V14.01,2013-10-25 06:51:00,
2013-10-25 01:56:00,41.6,31.1,30.44,NNE,22,0.0,0.0,66,0.00,,,0.00,0.00,VWS V14.01,2013-10-25 06:56:00,
2013-10-25 02:01:00,41.5,31.4,30.44,NNE,22,0.0,0.0,67,0.00,,,0.00,0.00,VWS V14.01,2013-10-25 07:01:00,
2013-10-25 02:06:00,41.5,31.0,30.44,NNE,22,0.0,0.0,66,0.00,,,0.00,0.00,VWS V14.01,2013-10-25 07:06:00,
2013-10-25 02:11:00,41.5,31.0,30.44,NNE,22,0.0,0.0,66,0.00,,,0.00,0.00,VWS V14.01,2013-10-25 07:11:00,
2013-10-25 02:16:00,41.3,30.8,30.44,NNE,22,0.0,0.0,66,0.00,,,0.00,0.00,VWS V14.01,2013-10-25 07:16:00,
2013-10-25 02:21:00,41.3,30.8,30.44,NNE,22,0.0,0.0,66,0.00,,,0.00,0.00,VWS V14.01,2013-10-25 07:21:00,
2013-10-25 02:26:00,41.3,30.8,30.44,NNE,22,0.0,0.0,66,0.00,,,0.00,0.00,VWS V14.01,2013-10-25 07:26:00,
2013-10-25 02:31:00,41.2,30.7,30.44,NNE,22,0.0,0.0,66,0.00,,,0.00,0.00,VWS V14.01,2013-10-25 07:31:00,
2013-10-25 02:36:00,41.2,30.7,30.44,NNE,22,0.0,0.0,66,0.00,,,0.00,0.00,VWS V14.01,2013-10-25 07:36:00,
2013-10-25 02:41:00,41.1,31.0,30.44,NNE,22,0.0,0.0,67,0.00,,,0.00,0.00,VWS V14.01,2013-10-25 07:41:00,
2013-10-25 02:46:00,41.1,31.0,30.44,NNE,22,0.0,0.0,67,0.00,,,0.00,0.00,VWS V14.01,2013-10-25 07:46:00,
2013-10-25 02:51:00,41.1,30.6,30.44,NNE,23,0.0,0.0,66,0.00,,,0.00,0.00,VWS V14.01,2013-10-25 07:51:00,
2013-10-25 02:56:00,41.1,30.6,30.44,NNE,23,0.0,0.0,66,0.00,,,0.00,0.00,VWS V14.01,2013-10-25 07:56:00,
2013-10-25 03:01:00,41.2,30.7,30.45,NNE,23,0.0,0.0,66,0.00,,,0.00,0.00,VWS V14.01,2013-10-25 08:01:00,
2013-10-25 03:06:00,41.2,30.3,30.45,NNE,23,0.0,0.0,65,0.00,,,0.00,0.00,VWS V14.01,2013-10-25 08:06:00,
2013-10-25 03:11:00,41.3,30.4,30.45,NNE,23,0.0,0.0,65,0.00,,,0.00,0.00,VWS V14.01,2013-10-25 08:11:00,
2013-10-25 03:16:00,41.3,30.4,30.45,NNE,23,0.0,3.0,65,0.00,,,0.00,0.00,VWS V14.01,2013-10-25 08:16:00,
2013-10-25 03:21:00,41.5,30.6,30.45,NNE,23,0.0,0.0,65,0.00,,,0.00,0.00,VWS V14.01,2013-10-25 08:21:00,
2013-10-25 03:26:00,41.5,30.2,30.45,NNE,24,0.0,1.0,64,0.00,,,0.00,0.00,VWS V14.01,2013-10-25 08:26:00,
2013-10-25 03:31:00,41.5,30.6,30.45,NNE,24,0.0,1.0,65,0.00,,,0.00,0.00,VWS V14.01,2013-10-25 08:31:00,
2013-10-25 03:36:00,41.5,30.6,30.45,NNE,24,0.0,0.0,65,0.00,,,0.00,0.00,VWS V14.01,2013-10-25 08:36:00,
2013-10-25 03:41:00,41.5,30.6,30.45,NNE,24,0.0,0.0,65,0.00,,,0.00,0.00,VWS V14.01,2013-10-25 08:41:00,
2013-10-25 03:46:00,41.3,31.2,30.45,NNE,24,0.0,0.0,67,0.00,,,0.00,0.00,VWS V14.01,2013-10-25 08:46:00,
2013-10-25 03:51:00,41.2,31.5,30.45,NNE,24,0.0,0.0,68,0.00,,,0.00,0.00,VWS V14.01,2013-10-25 08:51:00,
2013-10-25 03:56:00,41.2,31.8,30.45,NNE,24,0.0,0.0,69,0.00,,,0.00,0.00,VWS V14.01,2013-10-25 08:56:00,
2013-10-25 04:01:00,41.1,31.7,30.45,NNE,24,0.0,0.0,69,0.00,,,0.00,0.00,VWS V14.01,2013-10-25 09:01:00,
2013-10-25 04:06:00,40.9,31.9,30.45,NNE,24,0.0,0.0,70,0.00,,,0.00,0.00,VWS V14.01,2013-10-25 09:06:00,
2013-10-25 04:11:00,40.8,32.1,30.45,NNE,24,0.0,0.0,71,0.00,,,0.00,0.00,VWS V14.01,2013-10-25 09:11:00,
2013-10-25 04:16:00,40.6,32.3,30.45,NNE,24,0.0,0.0,72,0.00,,,0.00,0.00,VWS V14.01,2013-10-25 09:16:00,
2013-10-25 04:21:00,40.3,32.3,30.45,NNE,24,0.0,0.0,73,0.00,,,0.00,0.00,VWS V14.01,2013-10-25 09:21:00,
2013-10-25 04:26:00,40.2,32.2,30.45,NNE,24,0.0,0.0,73,0.00,,,0.00,0.00,VWS V14.01,2013-10-25 09:26:00,
2013-10-25 04:31:00,40.1,32.8,30.44,NNE,24,0.0,0.0,75,0.00,,,0.00,0.00,VWS V14.01,2013-10-25 09:31:00,
2013-10-25 04:36:00,39.8,32.9,30.44,NNE,24,0.0,0.0,76,0.00,,,0.00,0.00,VWS V14.01,2013-10-25 09:36:00,
2013-10-25 04:41:00,39.8,32.9,30.44,NNE,27,0.0,1.0,76,0.00,,,0.00,0.00,VWS V14.01,2013-10-25 09:41:00,
2013-10-25 04:46:00,39.8,32.9,30.44,NNE,27,0.0,1.0,76,0.00,,,0.00,0.00,VWS V14.01,2013-10-25 09:46:00,
2013-10-25 04:51:00,39.8,32.9,30.45,NNE,27,0.0,0.0,76,0.00,,,0.00,0.00,VWS V14.01,2013-10-25 09:51:00,
2013-10-25 04:56:00,39.8,32.9,30.44,NNE,27,0.0,0.0,76,0.00,,,0.00,0.00,VWS V14.01,2013-10-25 09:56:00,
2013-10-25 05:01:00,39.8,32.9,30.45,NNE,27,0.0,0.0,76,0.00,,,0.00,0.00,VWS V14.01,2013-10-25 10:01:00,
2013-10-25 05:06:00,39.6,32.7,30.45,NNE,27,0.0,0.0,76,0.00,,,0.00,0.00,VWS V14.01,2013-10-25 10:06:00,
2013-10-25 05:11:00,39.6,32.7,30.45,NNE,27,0.0,0.0,76,0.00,,,0.00,0.00,VWS V14.01,2013-10-25 10:11:00,
2013-10-25 05:16:00,39.5,32.6,30.45,NNE,27,0.0,0.0,76,0.00,,,0.00,0.00,VWS V14.01,2013-10-25 10:16:00,
2013-10-25 05:21:00,39.3,32.7,30.45,NNE,27,0.0,0.0,77,0.00,,,0.00,0.00,VWS V14.01,2013-10-25 10:21:00,
2013-10-25 05:26:00,39.3,32.7,30.45,NNE,27,0.0,0.0,77,0.00,,,0.00,0.00,VWS V14.01,2013-10-25 10:26:00,
2013-10-25 05:31:00,39.2,32.6,30.45,NNE,27,0.0,0.0,77,0.00,,,0.00,0.00,VWS V14.01,2013-10-25 10:31:00,
2013-10-25 05:36:00,39.2,32.6,30.46,NNE,26,0.0,0.0,77,0.00,,,0.00,0.00,VWS V14.01,2013-10-25 10:36:00,
2013-10-25 05:41:00,39.2,32.6,30.46,NNE,27,0.0,0.0,77,0.00,,,0.00,0.00,VWS V14.01,2013-10-25 10:41:00,
2013-10-25 05:46:00,39.1,32.5,30.46,NNE,27,0.0,0.0,77,0.00,,,0.00,0.00,VWS V14.01,2013-10-25 10:46:00,
2013-10-25 05:51:00,39.2,32.0,30.46,NNE,27,0.0,0.0,75,0.00,,,0.00,0.00,VWS V14.01,2013-10-25 10:51:00,
2013-10-25 05:56:00,39.2,31.6,30.46,NNE,27,0.0,0.0,74,0.00,,,0.00,0.00,VWS V14.01,2013-10-25 10:56:00,
2013-10-25 06:01:00,39.3,31.4,30.46,NNE,27,0.0,0.0,73,0.00,,,0.00,0.00,VWS V14.01,2013-10-25 11:01:00,
2013-10-25 06:06:00,39.5,31.6,30.46,NNE,27,0.0,0.0,73,0.00,,,0.00,0.00,VWS V14.01,2013-10-25 11:06:00,
2013-10-25 06:11:00,39.5,31.6,30.46,NNE,27,0.0,0.0,73,0.00,,,0.00,0.00,VWS V14.01,2013-10-25 11:11:00,
2013-10-25 06:16:00,39.5,31.6,30.46,NNE,27,0.0,0.0,73,0.00,,,0.00,0.00,VWS V14.01,2013-10-25 11:16:00,
2013-10-25 06:21:00,39.6,31.3,30.46,NNE,27,0.0,0.0,72,0.00,,,0.00,0.00,VWS V14.01,2013-10-25 11:21:00,
2013-10-25 06:26:00,39.6,31.3,30.46,NE,45,0.0,0.0,72,0.00,,,0.00,0.00,VWS V14.01,2013-10-25 11:26:00,
2013-10-25 06:31:00,39.6,31.3,30.46,East,95,0.0,4.0,72,0.00,,,0.00,0.00,VWS V14.01,2013-10-25 11:31:00,
2013-10-25 06:36:00,39.6,31.3,30.47,East,96,0.0,0.0,72,0.00,,,0.00,0.00,VWS V14.01,2013-10-25 11:36:00,
2013-10-25 06:41:00,39.6,31.3,30.47,ESE,111,0.0,0.0,72,0.00,,,0.00,0.00,VWS V14.01,2013-10-25 11:41:00,
2013-10-25 06:46:00,39.6,31.3,30.47,ESE,111,0.0,0.0,72,0.00,,,0.00,0.00,VWS V14.01,2013-10-25 11:46:00,
2013-10-25 06:51:00,39.6,31.3,30.47,ESE,111,0.0,0.0,72,0.00,,,0.00,0.00,VWS V14.01,2013-10-25 11:51:00,
2013-10-25 06:55:00,39.5,31.6,30.47,ESE,111,0.0,0.0,73,0.00,,,0.00,0.00,VWS V14.01,2013-10-25 11:55:00,
2013-10-25 07:00:00,39.5,31.2,30.47,ESE,111,0.0,0.0,72,0.00,,,0.00,0.00,VWS V14.01,2013-10-25 12:00:00,
2013-10-25 07:05:00,39.3,31.0,30.47,ESE,109,0.0,0.0,72,0.00,,,0.00,0.00,VWS V14.01,2013-10-25 12:05:00,
2013-10-25 07:10:00,39.2,31.3,30.47,ESE,110,0.0,0.0,73,0.00,,,0.00,0.00,VWS V14.01,2013-10-25 12:10:00,
2013-10-25 07:15:00,39.1,31.2,30.47,ESE,109,0.0,0.0,73,0.00,,,0.00,0.00,VWS V14.01,2013-10-25 12:15:00,
2013-10-25 07:20:00,38.9,31.0,30.47,ESE,110,0.0,0.0,73,0.00,,,0.00,0.00,VWS V14.01,2013-10-25 12:20:00,
2013-10-25 07:25:00,38.9,31.3,30.47,ESE,110,0.0,0.0,74,0.00,,,0.00,0.00,VWS V14.01,2013-10-25 12:25:00,
2013-10-25 07:30:00,38.8,31.2,30.47,ESE,109,0.0,0.0,74,0.00,,,0.00,0.00,VWS V14.01,2013-10-25 12:30:00,
2013-10-25 07:35:00,38.6,31.0,30.47,ESE,110,0.0,0.0,74,0.00,,,0.00,0.00,VWS V14.01,2013-10-25 12:35:00,
2013-10-25 07:40:00,38.6,31.0,30.47,ESE,109,0.0,0.0,74,0.00,,,0.00,0.00,VWS V14.01,2013-10-25 12:40:00,
2013-10-25 07:45:00,38.6,31.0,30.47,ESE,107,0.0,0.0,74,0.00,,,0.00,0.00,VWS V14.01,2013-10-25 12:45:00,
2013-10-25 07:50:00,38.6,31.0,30.47,ESE,109,0.0,0.0,74,0.00,,,0.00,0.00,VWS V14.01,2013-10-25 12:50:00,
2013-10-25 07:55:00,38.6,31.0,30.47,ESE,114,0.0,0.0,74,0.00,,,0.00,0.00,VWS V14.01,2013-10-25 12:55:00,
2013-10-25 08:00:00,38.8,31.2,30.47,ESE,103,0.0,5.0,74,0.00,,,0.00,0.00,VWS V14.01,2013-10-25 13:00:00,
2013-10-25 08:05:00,38.8,31.2,30.47,ESE,116,0.0,0.0,74,0.00,,,0.00,0.00,VWS V14.01,2013-10-25 13:05:00,
2013-10-25 08:10:00,38.9,31.3,30.47,ESE,113,0.0,4.0,74,0.00,,,0.00,0.00,VWS V14.01,2013-10-25 13:10:00,
2013-10-25 08:15:00,38.9,31.3,30.47,ESE,112,0.0,4.0,74,0.00,,,0.00,0.00,VWS V14.01,2013-10-25 13:15:00,
2013-10-25 08:20:00,39.1,31.5,30.47,ESE,113,0.0,0.0,74,0.00,,,0.00,0.00,VWS V14.01,2013-10-25 13:20:00,
2013-10-25 08:25:00,39.1,31.5,30.47,ESE,113,0.0,0.0,74,0.00,,,0.00,0.00,VWS V14.01,2013-10-25 13:25:00,
2013-10-25 08:30:00,39.2,31.6,30.47,ESE,106,0.0,0.0,74,0.00,,,0.00,0.00,VWS V14.01,2013-10-25 13:30:00,
2013-10-25 08:35:00,39.3,31.4,30.48,SSE,150,0.0,0.0,73,0.00,,,0.00,0.00,VWS V14.01,2013-10-25 13:35:00,
2013-10-25 08:40:00,39.6,31.3,30.48,ESE,118,0.0,4.0,72,0.00,,,0.00,0.00,VWS V14.01,2013-10-25 13:40:00,
2013-10-25 08:45:00,39.9,31.6,30.48,East,92,0.0,5.0,72,0.00,,,0.00,0.00,VWS V14.01,2013-10-25 13:45:00,
2013-10-25 08:50:00,40.2,31.6,30.48,ESE,109,3.0,3.0,71,0.00,,,0.00,0.00,VWS V14.01,2013-10-25 13:50:00,
2013-10-25 08:55:00,40.5,31.1,30.48,ESE,109,0.0,6.0,69,0.00,,,0.00,0.00,VWS V14.01,2013-10-25 13:55:00,
2013-10-25 09:00:00,40.8,31.4,30.48,ESE,111,0.0,6.0,69,0.00,,,0.00,0.00,VWS V14.01,2013-10-25 14:00:00,
2013-10-25 09:05:00,41.1,31.4,30.48,ESE,105,3.0,7.0,68,0.00,,,0.00,0.00,VWS V14.01,2013-10-25 14:05:00,
2013-10-25 09:10:00,41.3,30.8,30.48,ESE,116,5.0,7.0,66,0.00,,,0.00,0.00,VWS V14.01,2013-10-25 14:10:00,
2013-10-25 09:15:00,41.8,31.7,30.48,ESE,119,4.0,7.0,67,0.00,,,0.00,0.00,VWS V14.01,2013-10-25 14:15:00,
2013-10-25 09:20:00,42.2,31.3,30.48,ESE,115,0.0,2.0,65,0.00,,,0.00,0.00,VWS V14.01,2013-10-25 14:20:00,
2013-10-25 09:25:00,42.6,30.9,30.48,ESE,113,2.0,9.0,63,0.00,,,0.00,0.00,VWS V14.01,2013-10-25 14:25:00,
2013-10-25 09:30:00,42.9,31.6,30.48,SE,138,0.0,10.0,64,0.00,,,0.00,0.00,VWS V14.01,2013-10-25 14:30:00,
2013-10-25 09:35:00,43.3,31.6,30.48,East,100,5.0,5.0,63,0.00,,,0.00,0.00,VWS V14.01,2013-10-25 14:35:00,
2013-10-25 09:40:00,43.8,31.2,30.48,ESE,120,0.0,10.0,61,0.00,,,0.00,0.00,VWS V14.01,2013-10-25 14:40:00,
2013-10-25 09:45:00,44.2,31.2,30.48,SE,138,4.0,10.0,60,0.00,,,0.00,0.00,VWS V14.01,2013-10-25 14:45:00,
2013-10-25 09:50:00,44.8,30.9,30.49,East,92,4.0,7.0,58,0.00,,,0.00,0.00,VWS V14.01,2013-10-25 14:50:00,
2013-10-25 09:55:00,45.1,31.2,30.48,SE,130,0.0,10.0,58,0.00,,,0.00,0.00,VWS V14.01,2013-10-25 14:55:00,
2013-10-25 10:00:00,45.7,31.8,30.48,ESE,117,0.0,10.0,58,0.00,,,0.00,0.00,VWS V14.01,2013-10-25 15:00:00,
2013-10-25 10:05:00,46.2,31.4,30.48,ESE,122,0.0,0.0,56,0.00,,,0.00,0.00,VWS V14.01,2013-10-25 15:05:00,
2013-10-25 10:10:00,47.0,30.3,30.48,SSE,151,0.0,9.0,52,0.00,,,0.00,0.00,VWS V14.01,2013-10-25 15:10:00,
2013-10-25 10:15:00,47.7,30.5,30.48,SE,138,5.0,9.0,51,0.00,,,0.00,0.00,VWS V14.01,2013-10-25 15:15:00,
2013-10-25 10:20:00,48.3,29.5,30.48,SSE,150,8.0,10.0,48,0.00,,,0.00,0.00,VWS V14.01,2013-10-25 15:20:00,
2013-10-25 10:25:00,48.6,30.3,30.48,SE,139,7.0,15.0,49,0.00,,,0.00,0.00,VWS V14.01,2013-10-25 15:25:00,
2013-10-25 10:30:00,48.8,30.0,30.48,ESE,112,3.0,15.0,48,0.00,,,0.00,0.00,VWS V14.01,2013-10-25 15:30:00,
2013-10-25 10:35:00,49.2,30.9,30.48,SSE,157,4.0,7.0,49,0.00,,,0.00,0.00,VWS V14.01,2013-10-25 15:35:00,
2013-10-25 10:40:00,49.4,30.5,30.47,ESE,117,0.0,11.0,48,0.00,,,0.00,0.00,VWS V14.01,2013-10-25 15:40:00,
2013-10-25 10:45:00,49.5,31.6,30.47,SE,140,0.0,11.0,50,0.00,,,0.00,0.00,VWS V14.01,2013-10-25 15:45:00,
2013-10-25 10:50:00,49.8,31.4,30.47,SE,125,0.0,0.0,49,0.00,,,0.00,0.00,VWS V14.01,2013-10-25 15:50:00,
2013-10-25 10:55:00,50.4,31.0,30.47,ESE,111,3.0,9.0,47,0.00,,,0.00,0.00,VWS V14.01,2013-10-25 15:55:00,
2013-10-25 11:00:00,51.0,31.0,30.47,ESE,115,2.0,9.0,46,0.00,,,0.00,0.00,VWS V14.01,2013-10-25 16:00:00,
2013-10-25 11:05:00,51.3,31.2,30.47,ESE,117,5.0,7.0,46,0.00,,,0.00,0.00,VWS V14.01,2013-10-25 16:05:00,
2013-10-25 11:10:00,51.4,31.3,30.47,ESE,114,0.0,10.0,46,0.00,,,0.00,0.00,VWS V14.01,2013-10-25 16:10:00,
2013-10-25 11:15:00,51.4,30.8,30.46,SSE,149,4.0,14.0,45,0.00,,,0.00,0.00,VWS V14.01,2013-10-25 16:15:00,
2013-10-25 11:20:00,51.6,31.5,30.46,SSE,153,0.0,0.0,46,0.00,,,0.00,0.00,VWS V14.01,2013-10-25 16:20:00,
2013-10-25 11:25:00,52.0,31.3,30.46,SE,136,0.0,10.0,45,0.00,,,0.00,0.00,VWS V14.01,2013-10-25 16:25:00,
2013-10-25 11:30:00,52.6,31.9,30.46,ESE,108,0.0,10.0,45,0.00,,,0.00,0.00,VWS V14.01,2013-10-25 16:30:00,
2013-10-25 11:35:00,52.9,32.2,30.46,ESE,116,0.0,0.0,45,0.00,,,0.00,0.00,VWS V14.01,2013-10-25 16:35:00,
2013-10-25 11:40:00,53.2,33.0,30.46,SE,126,0.0,10.0,46,0.00,,,0.00,0.00,VWS V14.01,2013-10-25 16:40:00,
2013-10-25 11:45:00,53.5,32.7,30.46,SSE,148,0.0,10.0,45,0.00,,,0.00,0.00,VWS V14.01,2013-10-25 16:45:00,
2013-10-25 11:50:00,54.1,32.1,30.46,SE,127,0.0,0.0,43,0.00,,,0.00,0.00,VWS V14.01,2013-10-25 16:50:00,
2013-10-25 11:55:00,54.4,31.8,30.46,ESE,116,5.0,7.0,42,0.00,,,0.00,0.00,VWS V14.01,2013-10-25 16:55:00,
2013-10-25 12:00:00,54.5,32.5,30.45,ESE,115,0.0,7.0,43,0.00,,,0.00,0.00,VWS V14.01,2013-10-25 17:00:00,
2013-10-25 12:05:00,55.0,32.3,30.46,ESE,109,0.0,0.0,42,0.00,,,0.00,0.00,VWS V14.01,2013-10-25 17:05:00,
2013-10-25 12:10:00,55.1,32.4,30.45,ESE,121,0.0,6.0,42,0.00,,,0.00,0.00,VWS V14.01,2013-10-25 17:10:00,
2013-10-25 12:15:00,55.3,32.0,30.45,SSE,165,4.0,9.0,41,0.00,,,0.00,0.00,VWS V14.01,2013-10-25 17:15:00,
2013-10-25 12:20:00,55.3,32.6,30.45,SE,137,0.0,0.0,42,0.00,,,0.00,0.00,VWS V14.01,2013-10-25 17:20:00,
2013-10-25 12:25:00,55.6,32.3,30.45,SE,144,0.0,7.0,41,0.00,,,0.00,0.00,VWS V14.01,2013-10-25 17:25:00,
2013-10-25 12:30:00,55.7,33.6,30.45,SE,128,0.0,7.0,43,0.00,,,0.00,0.00,VWS V14.01,2013-10-25 17:30:00,
2013-10-25 12:35:00,56.0,33.8,30.44,ESE,103,4.0,5.0,43,0.00,,,0.00,0.00,VWS V14.01,2013-10-25 17:35:00,
2013-10-25 12:40:00,56.3,34.1,30.44,SE,135,0.0,5.0,43,0.00,,,0.00,0.00,VWS V14.01,2013-10-25 17:40:00,
2013-10-25 12:45:00,56.6,33.2,30.44,SE,134,0.0,6.0,41,0.00,,,0.00,0.00,VWS V14.01,2013-10-25 17:45:00,
2013-10-25 12:50:00,56.6,32.6,30.44,ESE,123,0.0,6.0,40,0.00,,,0.00,0.00,VWS V14.01,2013-10-25 17:50:00,
2013-10-25 12:55:00,56.7,33.9,30.43,SSE,161,0.0,7.0,42,0.00,,,0.00,0.00,VWS V14.01,2013-10-25 17:55:00,
2013-10-25 13:00:00,57.0,33.5,30.42,SSE,150,0.0,7.0,41,0.00,,,0.00,0.00,VWS V14.01,2013-10-25 18:00:00,
2013-10-25 13:05:00,57.5,34.0,30.42,South,170,3.0,3.0,41,0.00,,,0.00,0.00,VWS V14.01,2013-10-25 18:05:00,
2013-10-25 13:10:00,57.6,34.7,30.42,SE,142,0.0,10.0,42,0.00,,,0.00,0.00,VWS V14.01,2013-10-25 18:10:00,
2013-10-25 13:15:00,57.8,34.3,30.41,SSE,164,0.0,10.0,41,0.00,,,0.00,0.00,VWS V14.01,2013-10-25 18:15:00,
2013-10-25 13:20:00,57.6,33.5,30.40,SE,139,0.0,1.0,40,0.00,,,0.00,0.00,VWS V14.01,2013-10-25 18:20:00,
2013-10-25 13:25:00,57.6,34.1,30.41,SE,134,7.0,9.0,41,0.00,,,0.00,0.00,VWS V14.01,2013-10-25 18:25:00,
2013-10-25 13:30:00,58.0,33.8,30.40,ESE,115,0.0,9.0,40,0.00,,,0.00,0.00,VWS V14.01,2013-10-25 18:30:00,
2013-10-25 13:35:00,58.0,33.8,30.40,SE,129,5.0,5.0,40,0.00,,,0.00,0.00,VWS V14.01,2013-10-25 18:35:00,
2013-10-25 13:40:00,58.1,33.9,30.40,SE,140,0.0,6.0,40,0.00,,,0.00,0.00,VWS V14.01,2013-10-25 18:40:00,
2013-10-25 13:45:00,58.1,34.5,30.39,SSE,155,0.0,6.0,41,0.00,,,0.00,0.00,VWS V14.01,2013-10-25 18:45:00,
2013-10-25 13:50:00,58.4,33.6,30.39,SSE,160,0.0,10.0,39,0.00,,,0.00,0.00,VWS V14.01,2013-10-25 18:50:00,
2013-10-25 13:55:00,58.7,34.5,30.38,SE,142,0.0,7.0,40,0.00,,,0.00,0.00,VWS V14.01,2013-10-25 18:55:00,
2013-10-25 14:00:00,58.9,34.6,30.37,SE,142,0.0,7.0,40,0.00,,,0.00,0.00,VWS V14.01,2013-10-25 19:00:00,
2013-10-25 14:05:00,58.7,34.5,30.37,ESE,115,0.0,10.0,40,0.00,,,0.00,0.00,VWS V14.01,2013-10-25 19:05:00,
2013-10-25 14:10:00,58.3,34.1,30.37,SSE,158,0.0,7.0,40,0.00,,,0.00,0.00,VWS V14.01,2013-10-25 19:10:00,
2013-10-25 14:15:00,58.0,35.7,30.36,SSE,158,0.0,7.0,43,0.00,,,0.00,0.00,VWS V14.01,2013-10-25 19:15:00,
2013-10-25 14:20:00,58.4,34.8,30.36,SSE,157,0.0,7.0,41,0.00,,,0.00,0.00,VWS V14.01,2013-10-25 19:20:00,
2013-10-25 14:25:00,58.7,35.7,30.36,ESE,120,4.0,6.0,42,0.00,,,0.00,0.00,VWS V14.01,2013-10-25 19:25:00,
2013-10-25 14:30:00,58.9,35.3,30.35,ESE,123,1.0,7.0,41,0.00,,,0.00,0.00,VWS V14.01,2013-10-25 19:30:00,
2013-10-25 14:35:00,59.0,36.0,30.35,SE,138,0.0,7.0,42,0.00,,,0.00,0.00,VWS V14.01,2013-10-25 19:35:00,
2013-10-25 14:40:00,59.0,35.3,30.34,ESE,117,3.0,10.0,41,0.00,,,0.00,0.00,VWS V14.01,2013-10-25 19:40:00,
2013-10-25 14:45:00,59.0,36.6,30.34,SE,124,0.0,11.0,43,0.00,,,0.00,0.00,VWS V14.01,2013-10-25 19:45:00,
2013-10-25 14:50:00,58.7,35.7,30.34,South,179,0.0,11.0,42,0.00,,,0.00,0.00,VWS V14.01,2013-10-25 19:50:00,
2013-10-25 14:55:00,58.7,36.9,30.33,SE,136,1.0,9.0,44,0.00,,,0.00,0.00,VWS V14.01,2013-10-25 19:55:00,
2013-10-25 15:00:00,58.7,36.3,30.33,SSE,155,0.0,9.0,43,0.00,,,0.00,0.00,VWS V14.01,2013-10-25 20:00:00,
2013-10-25 15:05:00,58.7,35.7,30.33,ESE,112,0.0,9.0,42,0.00,,,0.00,0.00,VWS V14.01,2013-10-25 20:05:00,
2013-10-25 15:10:00,58.4,36.0,30.34,ESE,121,0.0,0.0,43,0.00,,,0.00,0.00,VWS V14.01,2013-10-25 20:10:00,
2013-10-25 15:15:00,58.6,36.8,30.33,SE,138,0.0,5.0,44,0.00,,,0.00,0.00,VWS V14.01,2013-10-25 20:15:00,
2013-10-25 15:20:00,58.6,36.2,30.33,SSE,159,0.0,10.0,43,0.00,,,0.00,0.00,VWS V14.01,2013-10-25 20:20:00,
2013-10-25 15:25:00,58.7,36.3,30.33,SE,138,0.0,6.0,43,0.00,,,0.00,0.00,VWS V14.01,2013-10-25 20:25:00,
2013-10-25 15:30:00,58.7,35.7,30.33,SSE,153,0.0,10.0,42,0.00,,,0.00,0.00,VWS V14.01,2013-10-25 20:30:00,
2013-10-25 15:35:00,58.6,36.2,30.33,ESE,113,4.0,10.0,43,0.00,,,0.00,0.00,VWS V14.01,2013-10-25 20:35:00,
2013-10-25 15:40:00,58.7,36.3,30.33,SSE,159,0.0,7.0,43,0.00,,,0.00,0.00,VWS V14.01,2013-10-25 20:40:00,
2013-10-25 15:45:00,58.7,36.3,30.33,SSE,154,0.0,7.0,43,0.00,,,0.00,0.00,VWS V14.01,2013-10-25 20:45:00,
2013-10-25 15:50:00,58.6,37.3,30.33,SSE,147,0.0,7.0,45,0.00,,,0.00,0.00,VWS V14.01,2013-10-25 20:50:00,
2013-10-25 15:55:00,58.6,37.3,30.32,SSE,155,0.0,6.0,45,0.00,,,0.00,0.00,VWS V14.01,2013-10-25 20:55:00,
2013-10-25 16:00:00,58.6,36.8,30.31,SSE,168,0.0,7.0,44,0.00,,,0.00,0.00,VWS V14.01,2013-10-25 21:00:00,
2013-10-25 16:05:00,58.4,37.7,30.31,SE,140,4.0,7.0,46,0.00,,,0.00,0.00,VWS V14.01,2013-10-25 21:05:00,
2013-10-25 16:10:00,58.3,37.1,30.31,SE,128,3.0,9.0,45,0.00,,,0.00,0.00,VWS V14.01,2013-10-25 21:10:00,
2013-10-25 16:15:00,58.0,37.4,30.31,South,173,0.0,9.0,46,0.00,,,0.00,0.00,VWS V14.01,2013-10-25 21:15:00,
2013-10-25 16:20:00,57.8,37.2,30.31,SE,134,0.0,9.0,46,0.00,,,0.00,0.00,VWS V14.01,2013-10-25 21:20:00,
2013-10-25 16:25:00,57.8,37.2,30.30,South,178,0.0,5.0,46,0.00,,,0.00,0.00,VWS V14.01,2013-10-25 21:25:00,
2013-10-25 16:30:00,57.6,37.0,30.30,SSE,152,7.0,7.0,46,0.00,,,0.00,0.00,VWS V14.01,2013-10-25 21:30:00,
2013-10-25 16:35:00,57.5,36.9,30.30,SSE,150,0.0,7.0,46,0.00,,,0.00,0.00,VWS V14.01,2013-10-25 21:35:00,
2013-10-25 16:40:00,57.3,36.7,30.30,ESE,113,4.0,9.0,46,0.00,,,0.00,0.00,VWS V14.01,2013-10-25 21:40:00,
2013-10-25 16:45:00,57.2,36.6,30.29,SE,130,0.0,9.0,46,0.00,,,0.00,0.00,VWS V14.01,2013-10-25 21:45:00,
2013-10-25 16:50:00,57.2,36.6,30.29,SSE,148,0.0,9.0,46,0.00,,,0.00,0.00,VWS V14.01,2013-10-25 21:50:00,
2013-10-25 16:55:00,57.3,37.3,30.29,SSE,148,0.0,0.0,47,0.00,,,0.00,0.00,VWS V14.01,2013-10-25 21:55:00,
2013-10-25 17:00:00,57.2,36.6,30.29,SSE,148,0.0,9.0,46,0.00,,,0.00,0.00,VWS V14.01,2013-10-25 22:00:00,
2013-10-25 17:05:00,57.0,36.4,30.29,SE,146,0.0,9.0,46,0.00,,,0.00,0.00,VWS V14.01,2013-10-25 22:05:00,
2013-10-25 17:10:00,56.9,36.9,30.29,SSE,148,0.0,7.0,47,0.00,,,0.00,0.00,VWS V14.01,2013-10-25 22:10:00,
2013-10-25 17:15:00,56.7,37.2,30.29,SSE,147,0.0,7.0,48,0.00,,,0.00,0.00,VWS V14.01,2013-10-25 22:15:00,
2013-10-25 17:20:00,56.3,36.9,30.29,SE,142,0.0,8.0,48,0.00,,,0.00,0.00,VWS V14.01,2013-10-25 22:20:00,
2013-10-25 17:25:00,56.2,37.3,30.29,SSE,155,1.0,6.0,49,0.00,,,0.00,0.00,VWS V14.01,2013-10-25 22:25:00,
2013-10-25 17:30:00,56.2,37.3,30.29,SSE,147,0.0,6.0,49,0.00,,,0.00,0.00,VWS V14.01,2013-10-25 22:30:00,
2013-10-25 17:35:00,56.2,37.3,30.28,SE,146,0.0,6.0,49,0.00,,,0.00,0.00,VWS V14.01,2013-10-25 22:35:00,
2013-10-25 17:40:00,56.2,36.8,30.29,SE,133,0.0,9.0,48,0.00,,,0.00,0.00,VWS V14.01,2013-10-25 22:40:00,
2013-10-25 17:45:00,56.0,37.1,30.28,SE,140,3.0,9.0,49,0.00,,,0.00,0.00,VWS V14.01,2013-10-25 22:45:00,
2013-10-25 17:50:00,55.7,36.3,30.28,SSE,153,0.0,9.0,48,0.00,,,0.00,0.00,VWS V14.01,2013-10-25 22:50:00,
2013-10-25 17:55:00,55.6,36.8,30.28,South,171,0.0,11.0,49,0.00,,,0.00,0.00,VWS V14.01,2013-10-25 22:55:00,
2013-10-25 18:00:00,55.3,36.5,30.28,SSE,159,0.0,11.0,49,0.00,,,0.00,0.00,VWS V14.01,2013-10-25 23:00:00,
2013-10-25 18:05:00,55.0,36.7,30.27,SE,144,0.0,11.0,50,0.00,,,0.00,0.00,VWS V14.01,2013-10-25 23:05:00,
2013-10-25 18:10:00,54.8,36.5,30.27,ESE,121,0.0,8.0,50,0.00,,,0.00,0.00,VWS V14.01,2013-10-25 23:10:00,
2013-10-25 18:15:00,54.5,36.8,30.27,ESE,117,3.0,8.0,51,0.00,,,0.00,0.00,VWS V14.01,2013-10-25 23:15:00,
2013-10-25 18:20:00,54.2,37.0,30.26,SE,146,0.0,8.0,52,0.00,,,0.00,0.00,VWS V14.01,2013-10-25 23:20:00,
2013-10-25 18:25:00,53.9,36.7,30.27,SSE,152,0.0,2.0,52,0.00,,,0.00,0.00,VWS V14.01,2013-10-25 23:25:00,
2013-10-25 18:30:00,53.6,36.4,30.26,SSE,153,0.0,4.0,52,0.00,,,0.00,0.00,VWS V14.01,2013-10-25 23:30:00,
2013-10-25 18:35:00,53.3,36.6,30.26,SE,144,0.0,4.0,53,0.00,,,0.00,0.00,VWS V14.01,2013-10-25 23:35:00,
2013-10-25 18:40:00,53.1,36.9,30.26,SE,144,0.0,0.0,54,0.00,,,0.00,0.00,VWS V14.01,2013-10-25 23:40:00,
2013-10-25 18:45:00,52.9,36.7,30.26,SE,144,0.0,0.0,54,0.00,,,0.00,0.00,VWS V14.01,2013-10-25 23:45:00,
2013-10-25 18:50:00,52.6,36.9,30.26,SSE,148,0.0,0.0,55,0.00,,,0.00,0.00,VWS V14.01,2013-10-25 23:50:00,
2013-10-25 18:55:00,52.3,37.1,30.26,SSE,148,0.0,0.0,56,0.00,,,0.00,0.00,VWS V14.01,2013-10-25 23:55:00,
2013-10-25 19:00:00,52.2,37.4,30.27,SSE,147,0.0,0.0,57,0.00,,,0.00,0.00,VWS V14.01,2013-10-26 00:00:00,
2013-10-25 19:05:00,51.9,37.6,30.27,SSE,148,0.0,0.0,58,0.00,,,0.00,0.00,VWS V14.01,2013-10-26 00:05:00,
2013-10-25 19:10:00,51.6,37.3,30.27,SSE,149,0.0,0.0,58,0.00,,,0.00,0.00,VWS V14.01,2013-10-26 00:10:00,
2013-10-25 19:15:00,51.3,37.5,30.27,SSE,150,0.0,0.0,59,0.00,,,0.00,0.00,VWS V14.01,2013-10-26 00:15:00,
2013-10-25 19:20:00,51.0,37.2,30.27,SSE,150,0.0,0.0,59,0.00,,,0.00,0.00,VWS V14.01,2013-10-26 00:20:00,
2013-10-25 19:25:00,50.8,37.4,30.27,SSE,150,0.0,0.0,60,0.00,,,0.00,0.00,VWS V14.01,2013-10-26 00:25:00,
2013-10-25 19:30:00,50.5,37.6,30.27,SSE,150,0.0,0.0,61,0.00,,,0.00,0.00,VWS V14.01,2013-10-26 00:30:00,
2013-10-25 19:35:00,50.2,37.3,30.27,SSE,151,0.0,0.0,61,0.00,,,0.00,0.00,VWS V14.01,2013-10-26 00:35:00,
2013-10-25 19:40:00,50.1,37.6,30.27,SE,142,0.0,0.0,62,0.00,,,0.00,0.00,VWS V14.01,2013-10-26 00:40:00,
2013-10-25 19:45:00,49.8,37.3,30.26,SE,142,0.0,0.0,62,0.00,,,0.00,0.00,VWS V14.01,2013-10-26 00:45:00,
2013-10-25 19:50:00,49.6,37.1,30.26,SE,142,0.0,0.0,62,0.00,,,0.00,0.00,VWS V14.01,2013-10-26 00:50:00,
2013-10-25 19:55:00,49.4,37.3,30.26,SE,142,0.0,0.0,63,0.00,,,0.00,0.00,VWS V14.01,2013-10-26 00:55:00,
2013-10-25 20:00:00,49.2,37.6,30.26,SE,142,0.0,1.0,64,0.00,,,0.00,0.00,VWS V14.01,2013-10-26 01:00:00,
2013-10-25 20:05:00,49.1,37.5,30.26,SE,141,0.0,1.0,64,0.00,,,0.00,0.00,VWS V14.01,2013-10-26 01:05:00,
2013-10-25 20:10:00,49.1,37.9,30.26,SE,144,0.0,0.0,65,0.00,,,0.00,0.00,VWS V14.01,2013-10-26 01:10:00,
2013-10-25 20:15:00,49.1,37.9,30.26,SE,143,0.0,0.0,65,0.00,,,0.00,0.00,VWS V14.01,2013-10-26 01:15:00,
2013-10-25 20:20:00,48.9,37.7,30.26,SSE,153,0.0,0.0,65,0.00,,,0.00,0.00,VWS V14.01,2013-10-26 01:20:00,
2013-10-25 20:25:00,48.9,37.7,30.26,SSE,151,0.0,0.0,65,0.00,,,0.00,0.00,VWS V14.01,2013-10-26 01:25:00,
2013-10-25 20:30:00,48.9,37.7,30.25,SSE,150,0.0,5.0,65,0.00,,,0.00,0.00,VWS V14.01,2013-10-26 01:30:00,
2013-10-25 20:35:00,48.9,37.7,30.25,SE,142,0.0,5.0,65,0.00,,,0.00,0.00,VWS V14.01,2013-10-26 01:35:00,
2013-10-25 20:40:00,48.9,37.7,30.25,SSE,151,0.0,0.0,65,0.00,,,0.00,0.00,VWS V14.01,2013-10-26 01:40:00,
2013-10-25 20:45:00,48.8,37.6,30.25,SSE,150,0.0,0.0,65,0.00,,,0.00,0.00,VWS V14.01,2013-10-26 01:45:00,
2013-10-25 20:50:00,48.6,37.8,30.25,SSE,150,0.0,0.0,66,0.00,,,0.00,0.00,VWS V14.01,2013-10-26 01:50:00,
2013-10-25 20:55:00,48.5,38.1,30.25,SSE,150,0.0,0.0,67,0.00,,,0.00,0.00,VWS V14.01,2013-10-26 01:55:00,
2013-10-25 21:00:00,48.5,38.1,30.25,SSE,150,0.0,0.0,67,0.00,,,0.00,0.00,VWS V14.01,2013-10-26 02:00:00,
2013-10-25 21:05:00,48.3,37.9,30.25,SSE,150,0.0,0.0,67,0.00,,,0.00,0.00,VWS V14.01,2013-10-26 02:05:00,
2013-10-25 21:10:00,48.2,38.2,30.25,SSE,152,0.0,0.0,68,0.00,,,0.00,0.00,VWS V14.01,2013-10-26 02:10:00,
2013-10-25 21:15:00,48.0,38.0,30.25,SSE,157,0.0,4.0,68,0.00,,,0.00,0.00,VWS V14.01,2013-10-26 02:15:00,
2013-10-25 21:20:00,48.0,38.0,30.24,SE,138,0.0,4.0,68,0.00,,,0.00,0.00,VWS V14.01,2013-10-26 02:20:00,
2013-10-25 21:25:00,48.2,38.2,30.24,SSE,148,0.0,7.0,68,0.00,,,0.00,0.00,VWS V14.01,2013-10-26 02:25:00,
2013-10-25 21:30:00,48.2,37.8,30.24,SSE,150,0.0,7.0,67,0.00,,,0.00,0.00,VWS V14.01,2013-10-26 02:30:00,
2013-10-25 21:35:00,48.3,37.9,30.24,ESE,121,0.0,7.0,67,0.00,,,0.00,0.00,VWS V14.01,2013-10-26 02:35:00,
2013-10-25 21:40:00,48.5,38.1,30.24,SE,126,0.0,0.0,67,0.00,,,0.00,0.00,VWS V14.01,2013-10-26 02:40:00,
2013-10-25 21:45:00,48.6,38.2,30.24,SE,139,0.0,7.0,67,0.00,,,0.00,0.00,VWS V14.01,2013-10-26 02:45:00,
2013-10-25 21:50:00,48.6,38.2,30.23,SE,141,0.0,7.0,67,0.00,,,0.00,0.00,VWS V14.01,2013-10-26 02:50:00,
2013-10-25 21:55:00,48.6,38.2,30.24,SE,131,0.0,0.0,67,0.00,,,0.00,0.00,VWS V14.01,2013-10-26 02:55:00,
2013-10-25 22:00:00,48.6,38.2,30.24,SE,134,0.0,0.0,67,0.00,,,0.00,0.00,VWS V14.01,2013-10-26 03:00:00,
2013-10-25 22:05:00,48.6,38.5,30.24,SSE,148,0.0,0.0,68,0.00,,,0.00,0.00,VWS V14.01,2013-10-26 03:05:00,
2013-10-25 22:10:00,48.5,38.4,30.24,SSE,148,0.0,0.0,68,0.00,,,0.00,0.00,VWS V14.01,2013-10-26 03:10:00,
2013-10-25 22:15:00,48.3,38.2,30.24,SSE,148,0.0,0.0,68,0.00,,,0.00,0.00,VWS V14.01,2013-10-26 03:15:00,
2013-10-25 22:20:00,48.2,38.2,30.24,SSE,149,0.0,0.0,68,0.00,,,0.00,0.00,VWS V14.01,2013-10-26 03:20:00,
2013-10-25 22:25:00,48.2,38.5,30.24,SSE,150,0.0,2.0,69,0.00,,,0.00,0.00,VWS V14.01,2013-10-26 03:25:00,
2013-10-25 22:30:00,48.0,38.3,30.23,SSE,149,0.0,2.0,69,0.00,,,0.00,0.00,VWS V14.01,2013-10-26 03:30:00,
2013-10-25 22:35:00,48.0,38.3,30.24,SSE,168,0.0,2.0,69,0.00,,,0.00,0.00,VWS V14.01,2013-10-26 03:35:00,
2013-10-25 22:40:00,48.2,38.5,30.24,South,170,0.0,3.0,69,0.00,,,0.00,0.00,VWS V14.01,2013-10-26 03:40:00,
2013-10-25 22:45:00,48.3,38.6,30.24,SSE,165,0.0,3.0,69,0.00,,,0.00,0.00,VWS V14.01,2013-10-26 03:45:00,
2013-10-25 22:50:00,48.5,38.4,30.24,SSE,155,0.0,4.0,68,0.00,,,0.00,0.00,VWS V14.01,2013-10-26 03:50:00,
2013-10-25 22:55:00,48.6,38.5,30.24,SSE,152,0.0,2.0,68,0.00,,,0.00,0.00,VWS V14.01,2013-10-26 03:55:00,
2013-10-25 23:00:00,48.8,38.7,30.24,SE,140,0.0,4.0,68,0.00,,,0.00,0.00,VWS V14.01,2013-10-26 04:00:00,
2013-10-25 23:01:00,48.8,38.7,30.24,SE,140,0.0,4.0,68,0.00,,,0.00,0.00,VWS V14.01,2013-10-26 04:01:00,
2013-10-25 23:02:00,48.8,38.7,30.24,SE,141,0.0,4.0,68,0.00,,,0.00,0.00,VWS V14.01,2013-10-26 04:02:00,
2013-10-25 23:07:00,48.8,38.7,30.23,SE,142,0.0,0.0,68,0.00,,,0.00,0.00,VWS V14.01,2013-10-26 04:07:00,
2013-10-25 23:12:00,48.8,38.7,30.23,SSE,156,0.0,5.0,68,0.00,,,0.00,0.00,VWS V14.01,2013-10-26 04:12:00,
2013-10-25 23:17:00,48.9,38.8,30.23,SSE,166,0.0,5.0,68,0.00,,,0.00,0.00,VWS V14.01,2013-10-26 04:17:00,
2013-10-25 23:22:00,48.9,38.8,30.23,SSE,155,0.0,5.0,68,0.00,,,0.00,0.00,VWS V14.01,2013-10-26 04:22:00,
2013-10-25 23:27:00,49.1,39.0,30.23,SE,142,2.0,6.0,68,0.00,,,0.00,0.00,VWS V14.01,2013-10-26 04:27:00,
2013-10-25 23:32:00,49.1,39.0,30.23,SSE,167,0.0,6.0,68,0.00,,,0.00,0.00,VWS V14.01,2013-10-26 04:32:00,
2013-10-25 23:37:00,49.1,39.0,30.23,SSE,165,0.0,0.0,68,0.00,,,0.00,0.00,VWS V14.01,2013-10-26 04:37:00,
2013-10-25 23:42:00,49.1,39.0,30.22,SSE,165,0.0,0.0,68,0.00,,,0.00,0.00,VWS V14.01,2013-10-26 04:42:00,
2013-10-25 23:47:00,49.1,39.4,30.22,SSE,165,0.0,0.0,69,0.00,,,0.00,0.00,VWS V14.01,2013-10-26 04:47:00,
2013-10-25 23:52:00,48.9,38.8,30.22,SE,144,0.0,2.0,68,0.00,,,0.00,0.00,VWS V14.01,2013-10-26 04:52:00,
2013-10-25 23:57:00,49.1,39.4,30.22,SE,145,0.0,2.0,69,0.00,,,0.00,0.00,VWS V14.01,2013-10-26 04:57:00,